QPF
0.03 0.04 0.05 0.03 0.03 0.03 0.02 0.01 0.00 0.00 0.00 0.00 0.00 0.00 0.00 0.00 0.00 0.00 0.00 0.00 0.00 0.00 0.00 0.00 0.00 0.00 0.00 0.00 0.00 0.00 0.00 0.00 0.00 0.00 0.00 0.00 0.00 0.00 0.00 0.00 0.00 0.01 0.01 0.01
0.03 0.03 0.01 0.01 0.02 0.02 0.02 0.01 0.00 0.00 0.00 0.00 0.00 0.00 0.00 0.00 0.00 0.00 0.00 0.00 0.00 0.00 0.00 0.00 0.00 0.00 0.00 0.00 0.00 0.00 0.00 0.00 0.00 0.00 0.00 0.00 0.00 0.00 0.00 0.00 0.00 0.01 0.01 0.01
0.02 0.01 0.01 0.01 0.02 0.04 0.03 0.01 0.00 0.01 0.00 0.00 0.00 0.00 0.00 0.00 0.00 0.00 0.00 0.00 0.00 0.00 0.00 0.00 0.00 0.00 0.00 0.00 0.00 0.00 0.00 0.00 0.00 0.00 0.00 0.00 0.00 0.00 0.00 0.00 0.00 0.00 0.00 0.01
0.01 0.00 0.00 0.01 0.01 0.02 0.03 0.01 0.01 0.01 0.01 0.00 0.00 0.00 0.00 0.00 0.00 0.00 0.00 0.00 0.00 0.00 0.00 0.00 0.00 0.00 0.00 0.00 0.00 0.00 0.00 0.00 0.00 0.00 0.00 0.00 0.00 0.00 0.00 0.00 0.00 0.00 0.00 0.00
0.01 0.00 0.01 0.01 0.01 0.02 0.05 0.03 0.02 0.01 0.00 0.00 0.00 0.00 0.00 0.00 0.00 0.00 0.00 0.00 0.00 0.00 0.00 0.00 0.00 0.00 0.00 0.00 0.00 0.00 0.00 0.00 0.00 0.00 0.00 0.00 0.00 0.00 0.00 0.00 0.00 0.00 0.00 0.00
0.01 0.01 0.02 0.02 0.03 0.04 0.06 0.04 0.02 0.01 0.00 0.00 0.00 0.00 0.00 0.00 0.00 0.00 0.00 0.00 0.00 0.00 0.00 0.00 0.00 0.00 0.00 0.00 0.00 0.00 0.00 0.00 0.00 0.00 0.00 0.00 0.00 0.00 0.00 0.00 0.00 0.00 0.00 0.00
0.01 0.01 0.01 0.02 0.04 0.03 0.04 0.03 0.01 0.00 0.00 0.00 0.00 0.00 0.00 0.00 0.00 0.00 0.00 0.00 0.00 0.00 0.00 0.00 0.00 0.00 0.00 0.00 0.00 0.00 0.00 0.00 0.00 0.00 0.00 0.00 0.00 0.00 0.00 0.00 0.00 0.00 0.00 0.00
0.00 0.01 0.01 0.01 0.01 0.02 0.02 0.01 0.01 0.00 0.00 0.00 0.00 0.00 0.00 0.00 0.00 0.00 0.00 0.00 0.00 0.00 0.00 0.00 0.00 0.00 0.00 0.00 0.00 0.00 0.00 0.00 0.00 0.00 0.00 0.00 0.00 0.00 0.00 0.00 0.00 0.00 0.00 0.00
0.00 0.00 0.00 0.00 0.01 0.01 0.01 0.00 0.00 0.00 0.00 0.00 0.00 0.00 0.00 0.00 0.00 0.00 0.00 0.00 0.00 0.00 0.00 0.00 0.00 0.00 0.00 0.00 0.00 0.00 0.00 0.00 0.00 0.00 0.00 0.00 0.00 0.00 0.00 0.00 0.00 0.00 0.00 0.00
0.00 0.00 0.00 0.00 0.00 0.00 0.00 0.01 0.00 0.00 0.00 0.00 0.00 0.00 0.00 0.00 0.00 0.00 0.00 0.00 0.00 0.00 0.00 0.00 0.00 0.00 0.00 0.00 0.00 0.00 0.00 0.00 0.00 0.00 0.00 0.00 0.00 0.00 0.00 0.00 0.00 0.00 0.00 0.00
0.00 0.00 0.00 0.00 0.00 0.00 0.00 0.00 0.00 0.00 0.00 0.00 0.00 0.00 0.00 0.00 0.00 0.00 0.00 0.00 0.00 0.00 0.00 0.00 0.00 0.00 0.00 0.00 0.00 0.00 0.00 0.00 0.00 0.00 0.00 0.00 0.00 0.00 0.00 0.00 0.00 0.00 0.00 0.00
0.00 0.00 0.00 0.00 0.00 0.00 0.00 0.00 0.00 0.00 0.00 0.00 0.00 0.00 0.00 0.00 0.00 0.00 0.00 0.00 0.00 0.00 0.00 0.00 0.00 0.00 0.00 0.00 0.00 0.00 0.00 0.00 0.00 0.00 0.00 0.00 0.00 0.00 0.00 0.00 0.00 0.00 0.00 0.00
0.00 0.00 0.00 0.00 0.00 0.00 0.00 0.00 0.00 0.00 0.00 0.00 0.00 0.00 0.00 0.00 0.00 0.00 0.00 0.00 0.00 0.00 0.00 0.00 0.00 0.00 0.00 0.00 0.00 0.00 0.00 0.00 0.00 0.00 0.00 0.00 0.00 0.00 0.00 0.00 0.00 0.00 0.00 0.00
0.00 0.00 0.00 0.00 0.00 0.00 0.00 0.00 0.00 0.00 0.00 0.00 0.00 0.00 0.00 0.00 0.00 0.00 0.00 0.00 0.00 0.00 0.00 0.00 0.00 0.00 0.00 0.00 0.00 0.00 0.00 0.00 0.00 0.00 0.00 0.00 0.00 0.00 0.00 0.00 0.00 0.00 0.00 0.00
0.00 0.00 0.00 0.00 0.00 0.00 0.00 0.00 0.00 0.00 0.00 0.00 0.00 0.00 0.00 0.00 0.00 0.00 0.00 0.00 0.00 0.00 0.00 0.00 0.00 0.00 0.00 0.00 0.00 0.00 0.00 0.00 0.00 0.00 0.00 0.00 0.00 0.00 0.00 0.00 0.00 0.00 0.00 0.00
0.00 0.00 0.00 0.00 0.00 0.00 0.00 0.00 0.00 0.00 0.00 0.00 0.00 0.00 0.00 0.00 0.00 0.00 0.00 0.00 0.00 0.00 0.00 0.00 0.00 0.00 0.00 0.00 0.00 0.00 0.00 0.00 0.00 0.00 0.00 0.00 0.00 0.00 0.00 0.00 0.00 0.00 0.00 0.00
0.00 0.00 0.00 0.00 0.00 0.00 0.00 0.00 0.00 0.00 0.00 0.00 0.00 0.00 0.00 0.00 0.00 0.00 0.00 0.00 0.00 0.00 0.00 0.00 0.00 0.00 0.00 0.00 0.00 0.00 0.00 0.00 0.00 0.00 0.00 0.00 0.00 0.00 0.00 0.00 0.00 0.00 0.00 0.00
0.00 0.00 0.00 0.00 0.00 0.00 0.00 0.00 0.00 0.00 0.00 0.00 0.00 0.00 0.00 0.00 0.00 0.00 0.00 0.00 0.00 0.00 0.00 0.00 0.00 0.00 0.00 0.00 0.00 0.00 0.00 0.00 0.00 0.00 0.00 0.00 0.00 0.00 0.00 0.00 0.00 0.00 0.00 0.00
0.00 0.00 0.00 0.00 0.00 0.00 0.00 0.00 0.00 0.00 0.00 0.00 0.00 0.00 0.00 0.00 0.00 0.00 0.00 0.00 0.00 0.00 0.00 0.00 0.00 0.00 0.00 0.00 0.00 0.00 0.00 0.00 0.00 0.00 0.00 0.00 0.00 0.00 0.00 0.00 0.00 0.00 0.00 0.00
0.00 0.00 0.00 0.00 0.00 0.00 0.00 0.00 0.00 0.00 0.00 0.00 0.00 0.00 0.00 0.00 0.00 0.00 0.00 0.00 0.00 0.00 0.00 0.00 0.00 0.00 0.00 0.00 0.00 0.00 0.00 0.00 0.00 0.00 0.00 0.00 0.00 0.00 0.00 0.00 0.00 0.00 0.00 0.00
0.00 0.00 0.00 0.00 0.00 0.00 0.00 0.00 0.00 0.00 0.00 0.00 0.00 0.00 0.00 0.00 0.00 0.00 0.00 0.00 0.00 0.00 0.00 0.00 0.00 0.00 0.00 0.00 0.00 0.00 0.00 0.00 0.00 0.00 0.00 0.00 0.00 0.00 0.00 0.00 0.00 0.00 0.00 0.00
0.00 0.00 0.00 0.00 0.00 0.00 0.00 0.00 0.00 0.00 0.00 0.00 0.00 0.00 0.00 0.00 0.00 0.00 0.00 0.00 0.00 0.00 0.00 0.00 0.00 0.00 0.00 0.00 0.00 0.00 0.00 0.00 0.00 0.00 0.00 0.00 0.00 0.00 0.00 0.00 0.00 0.00 0.00 0.00
0.00 0.00 0.00 0.00 0.00 0.00 0.00 0.00 0.00 0.00 0.00 0.00 0.00 0.00 0.00 0.00 0.00 0.00 0.00 0.00 0.00 0.00 0.00 0.00 0.00 0.00 0.00 0.00 0.00 0.00 0.00 0.00 0.00 0.00 0.00 0.00 0.00 0.00 0.00 0.00 0.00 0.00 0.00 0.00
0.00 0.00 0.00 0.00 0.00 0.00 0.00 0.00 0.00 0.00 0.00 0.00 0.00 0.00 0.00 0.00 0.00 0.00 0.00 0.00 0.00 0.00 0.00 0.00 0.00 0.00 0.00 0.00 0.00 0.00 0.00 0.00 0.00 0.00 0.00 0.00 0.00 0.00 0.00 0.00 0.00 0.00 0.00 0.00
0.00 0.00 0.00 0.00 0.00 0.00 0.00 0.00 0.00 0.00 0.00 0.00 0.00 0.00 0.00 0.00 0.00 0.00 0.00 0.00 0.00 0.00 0.00 0.00 0.00 0.00 0.00 0.00 0.00 0.00 0.00 0.00 0.00 0.00 0.00 0.00 0.00 0.00 0.00 0.00 0.00 0.00 0.00 0.00
0.00 0.00 0.00 0.00 0.00 0.00 0.00 0.00 0.00 0.00 0.00 0.00 0.00 0.00 0.00 0.00 0.00 0.00 0.00 0.00 0.00 0.00 0.00 0.00 0.00 0.00 0.00 0.00 0.00 0.00 0.00 0.00 0.00 0.00 0.00 0.00 0.00 0.00 0.00 0.00 0.00 0.00 0.00 0.00
MSLP
1010.32 1010.94 1011.44 1011.81 1012.07 1012.23 1012.35 1012.43 1012.49 1012.51 1012.49 1012.38 1012.18 1011.88 1011.50 1011.09 1010.70 1010.39 1010.22 1010.20 1010.34 1010.62 1011.00 1011.42 1011.83 1012.20 1012.50 1012.74 1012.93 1013.08 1013.23 1013.37 1013.51 1013.64 1013.74 1013.78 1013.74 1013.62 1013.42 1013.15 1012.85 1012.52 1012.19 1011.88
1010.82 1011.35 1011.75 1012.03 1012.21 1012.33 1012.42 1012.49 1012.56 1012.59 1012.55 1012.42 1012.17 1011.81 1011.36 1010.88 1010.44 1010.10 1009.91 1009.90 1010.07 1010.38 1010.78 1011.23 1011.65 1012.03 1012.34 1012.59 1012.79 1012.98 1013.16 1013.36 1013.56 1013.75 1013.89 1013.97 1013.95 1013.83 1013.63 1013.36 1013.05 1012.74 1012.43 1012.16
1011.24 1011.67 1011.98 1012.17 1012.29 1012.38 1012.46 1012.55 1012.63 1012.66 1012.61 1012.44 1012.14 1011.70 1011.17 1010.62 1010.11 1009.73 1009.52 1009.51 1009.70 1010.04 1010.47 1010.95 1011.40 1011.80 1012.12 1012.39 1012.63 1012.85 1013.09 1013.34 1013.60 1013.83 1014.02 1014.12 1014.12 1014.02 1013.81 1013.55 1013.25 1012.96 1012.69 1012.45
1011.51 1011.83 1012.05 1012.18 1012.27 1012.37 1012.48 1012.60 1012.72 1012.77 1012.72 1012.51 1012.14 1011.62 1010.99 1010.35 1009.76 1009.32 1009.07 1009.05 1009.25 1009.61 1010.08 1010.59 1011.08 1011.51 1011.87 1012.18 1012.45 1012.72 1013.00 1013.30 1013.60 1013.88 1014.10 1014.23 1014.25 1014.16 1013.97 1013.72 1013.44 1013.18 1012.94 1012.74
1011.57 1011.79 1011.94 1012.04 1012.15 1012.29 1012.46 1012.67 1012.85 1012.94 1012.90 1012.66 1012.23 1011.61 1010.89 1010.13 1009.45 1008.92 1008.62 1008.58 1008.76 1009.14 1009.64 1010.19 1010.72 1011.20 1011.61 1011.96 1012.27 1012.58 1012.90 1013.23 1013.57 1013.88 1014.12 1014.28 1014.31 1014.24 1014.07 1013.84 1013.59 1013.36 1013.16 1013.01
1011.43 1011.56 1011.67 1011.78 1011.93 1012.16 1012.44 1012.75 1013.02 1013.18 1013.16 1012.90 1012.41 1011.71 1010.88 1010.01 1009.22 1008.60 1008.23 1008.14 1008.31 1008.69 1009.21 1009.80 1010.37 1010.90 1011.35 1011.74 1012.09 1012.43 1012.78 1013.13 1013.48 1013.81 1014.07 1014.23 1014.29 1014.23 1014.09 1013.89 1013.68 1013.49 1013.33 1013.22
1011.12 1011.20 1011.29 1011.44 1011.67 1012.01 1012.42 1012.85 1013.23 1013.46 1013.47 1013.20 1012.67 1011.89 1010.96 1009.99 1009.09 1008.39 1007.95 1007.80 1007.94 1008.31 1008.84 1009.45 1010.07 1010.63 1011.13 1011.55 1011.93 1012.28 1012.63 1012.98 1013.33 1013.65 1013.91 1014.09 1014.16 1014.13 1014.02 1013.87 1013.70 1013.54 1013.43 1013.36
1010.75 1010.80 1010.90 1011.10 1011.42 1011.87 1012.40 1012.95 1013.42 1013.71 1013.75 1013.49 1012.93 1012.10 1011.09 1010.04 1009.06 1008.28 1007.77 1007.58 1007.68 1008.04 1008.58 1009.20 1009.83 1010.42 1010.93 1011.37 1011.75 1012.10 1012.44 1012.78 1013.11 1013.42 1013.67 1013.85 1013.95 1013.95 1013.88 1013.77 1013.64 1013.53 1013.46 1013.42
1010.43 1010.46 1010.58 1010.84 1011.23 1011.76 1012.38 1013.00 1013.53 1013.87 1013.93 1013.67 1013.09 1012.23 1011.19 1010.09 1009.07 1008.24 1007.69 1007.47 1007.54 1007.88 1008.40 1009.02 1009.66 1010.25 1010.76 1011.20 1011.57 1011.90 1012.21 1012.52 1012.82 1013.11 1013.36 1013.55 1013.67 1013.71 1013.68 1013.62 1013.54 1013.47 1013.43 1013.42
1010.23 1010.27 1010.41 1010.70 1011.13 1011.69 1012.34 1012.98 1013.52 1013.86 1013.92 1013.65 1013.06 1012.19 1011.15 1010.06 1009.03 1008.21 1007.65 1007.41 1007.47 1007.79 1008.30 1008.90 1009.51 1010.08 1010.58 1011.00 1011.34 1011.64 1011.93 1012.21 1012.49 1012.76 1013.01 1013.22 1013.36 1013.45 1013.47 1013.45 1013.41 1013.38 1013.37 1013.39
1010.23 1010.27 1010.41 1010.69 1011.11 1011.64 1012.24 1012.83 1013.32 1013.61 1013.63 1013.34 1012.75 1011.91 1010.91 1009.85 1008.88 1008.09 1007.57 1007.34 1007.40 1007.70 1008.18 1008.75 1009.34 1009.88 1010.35 1010.74 1011.06 1011.34 1011.60 1011.86 1012.13 1012.40 1012.66 1012.89 1013.07 1013.20 1013.27 1013.30 1013.31 1013.31 1013.32 1013.35
1010.39 1010.43 1010.56 1010.79 1011.14 1011.58 1012.07 1012.55 1012.92 1013.12 1013.07 1012.75 1012.17 1011.37 1010.42 1009.45 1008.56 1007.84 1007.37 1007.17 1007.24 1007.53 1007.99 1008.52 1009.07 1009.58 1010.02 1010.39 1010.69 1010.96 1011.22 1011.48 1011.76 1012.04 1012.33 1012.59 1012.82 1013.00 1013.12 1013.19 1013.24 1013.26 1013.29 1013.33
1010.67 1010.69 1010.77 1010.93 1011.17 1011.48 1011.82 1012.14 1012.36 1012.43 1012.30 1011.94 1011.36 1010.60 1009.73 1008.85 1008.06 1007.43 1007.02 1006.86 1006.93 1007.21 1007.64 1008.14 1008.65 1009.13 1009.56 1009.92 1010.23 1010.51 1010.79 1011.08 1011.38 1011.71 1012.03 1012.34 1012.61 1012.83 1012.99 1013.11 1013.18 1013.23 1013.27 1013.31
1010.96 1010.95 1010.97 1011.04 1011.16 1011.32 1011.49 1011.64 1011.70 1011.64 1011.42 1011.01 1010.42 1009.71 1008.91 1008.12 1007.41 1006.86 1006.51 1006.37 1006.45 1006.71 1007.10 1007.56 1008.04 1008.51 1008.93 1009.31 1009.65 1009.98 1010.30 1010.65 1011.00 1011.38 1011.75 1012.10 1012.41 1012.67 1012.87 1013.01 1013.10 1013.17 1013.22 1013.26
1011.17 1011.12 1011.08 1011.07 1011.07 1011.09 1011.12 1011.11 1011.03 1010.86 1010.54 1010.09 1009.50 1008.82 1008.08 1007.35 1006.71 1006.20 1005.88 1005.74 1005.80 1006.02 1006.37 1006.79 1007.25 1007.71 1008.16 1008.58 1008.98 1009.37 1009.77 1010.18 1010.61 1011.03 1011.45 1011.84 1012.18 1012.47 1012.69 1012.85 1012.96 1013.04 1013.09 1013.14
1011.23 1011.15 1011.06 1010.97 1010.90 1010.83 1010.74 1010.63 1010.45 1010.19 1009.82 1009.33 1008.73 1008.06 1007.35 1006.66 1006.04 1005.54 1005.20 1005.04 1005.04 1005.21 1005.50 1005.89 1006.33 1006.80 1007.28 1007.76 1008.24 1008.72 1009.20 1009.69 1010.18 1010.66 1011.11 1011.53 1011.89 1012.18 1012.41 1012.58 1012.70 1012.79 1012.85 1012.91
1011.16 1011.03 1010.90 1010.78 1010.67 1010.55 1010.42 1010.25 1010.03 1009.72 1009.32 1008.81 1008.21 1007.54 1006.83 1006.14 1005.50 1004.97 1004.57 1004.34 1004.27 1004.36 1004.59 1004.93 1005.36 1005.84 1006.37 1006.91 1007.47 1008.04 1008.61 1009.17 1009.72 1010.24 1010.72 1011.14 1011.50 1011.79 1012.02 1012.19 1012.31 1012.40 1012.47 1012.54
1010.98 1010.81 1010.66 1010.53 1010.42 1010.31 1010.18 1010.02 1009.80 1009.50 1009.10 1008.60 1008.00 1007.32 1006.59 1005.86 1005.17 1004.56 1004.08 1003.75 1003.58 1003.58 1003.73 1004.03 1004.43 1004.93 1005.50 1006.11 1006.75 1007.39 1008.03 1008.65 1009.24 1009.78 1010.26 1010.68 1011.02 1011.30 1011.52 1011.69 1011.81 1011.91 1012.00 1012.08
1010.78 1010.57 1010.41 1010.29 1010.20 1010.13 1010.06 1009.95 1009.77 1009.51 1009.14 1008.65 1008.06 1007.37 1006.61 1005.83 1005.07 1004.38 1003.79 1003.35 1003.07 1002.97 1003.04 1003.28 1003.66 1004.16 1004.76 1005.41 1006.11 1006.81 1007.50 1008.16 1008.77 1009.31 1009.78 1010.17 1010.50 1010.76 1010.97 1011.14 1011.27 1011.39 1011.49 1011.59
1010.66 1010.39 1010.22 1010.11 1010.06 1010.04 1010.03 1009.99 1009.88 1009.67 1009.35 1008.90 1008.32 1007.63 1006.84 1006.02 1005.19 1004.41 1003.72 1003.17 1002.78 1002.58 1002.57 1002.75 1003.09 1003.58 1004.19 1004.87 1005.59 1006.33 1007.05 1007.72 1008.32 1008.85 1009.30 1009.68 1009.99 1010.24 1010.45 1010.63 1010.78 1010.93 1011.06 1011.17
1010.66 1010.34 1010.14 1010.03 1010.01 1010.03 1010.08 1010.10 1010.05 1009.91 1009.63 1009.22 1008.67 1007.99 1007.20 1006.34 1005.46 1004.62 1003.85 1003.21 1002.73 1002.43 1002.34 1002.45 1002.75 1003.21 1003.80 1004.48 1005.21 1005.95 1006.67 1007.34 1007.94 1008.45 1008.89 1009.25 1009.55 1009.81 1010.03 1010.24 1010.43 1010.61 1010.78 1010.92
1010.81 1010.43 1010.19 1010.07 1010.05 1010.09 1010.17 1010.22 1010.22 1010.12 1009.90 1009.52 1009.01 1008.35 1007.57 1006.71 1005.82 1004.94 1004.12 1003.42 1002.86 1002.49 1002.32 1002.36 1002.60 1003.01 1003.56 1004.22 1004.93 1005.66 1006.37 1007.03 1007.61 1008.12 1008.55 1008.92 1009.23 1009.51 1009.77 1010.03 1010.27 1010.51 1010.72 1010.90
1011.07 1010.64 1010.36 1010.20 1010.16 1010.19 1010.26 1010.33 1010.34 1010.26 1010.06 1009.73 1009.25 1008.63 1007.89 1007.05 1006.18 1005.30 1004.46 1003.72 1003.11 1002.68 1002.44 1002.41 1002.57 1002.92 1003.41 1004.02 1004.70 1005.41 1006.10 1006.75 1007.34 1007.86 1008.31 1008.70 1009.05 1009.37 1009.69 1010.00 1010.31 1010.61 1010.88 1011.09
1011.37 1010.91 1010.59 1010.40 1010.33 1010.32 1010.36 1010.39 1010.39 1010.30 1010.11 1009.79 1009.35 1008.78 1008.09 1007.30 1006.47 1005.61 1004.79 1004.03 1003.40 1002.91 1002.60 1002.49 1002.58 1002.85 1003.28 1003.83 1004.47 1005.15 1005.83 1006.49 1007.10 1007.65 1008.13 1008.57 1008.98 1009.37 1009.75 1010.13 1010.51 1010.87 1011.19 1011.45
1011.65 1011.19 1010.86 1010.64 1010.52 1010.47 1010.45 1010.43 1010.37 1010.25 1010.05 1009.74 1009.32 1008.79 1008.15 1007.43 1006.65 1005.84 1005.04 1004.29 1003.63 1003.10 1002.73 1002.54 1002.54 1002.73 1003.09 1003.58 1004.18 1004.85 1005.53 1006.21 1006.86 1007.45 1008.00 1008.50 1008.98 1009.43 1009.88 1010.33 1010.77 1011.19 1011.57 1011.88
1011.83 1011.42 1011.11 1010.89 1010.74 1010.64 1010.56 1010.47 1010.34 1010.17 1009.93 1009.60 1009.19 1008.69 1008.11 1007.44 1006.72 1005.96 1005.18 1004.44 1003.76 1003.19 1002.76 1002.49 1002.41 1002.52 1002.81 1003.25 1003.82 1004.47 1005.18 1005.89 1006.59 1007.25 1007.87 1008.45 1008.99 1009.51 1010.01 1010.51 1011.00 1011.47 1011.89 1012.24
Thickness
5725 5723 5720 5728 5734 5736 5737 5735 5735 5742 5748 5742 5742 5747 5756 5760 5754 5752 5753 5752 5751 5750 5751 5747 5742 5737 5733 5729 5725 5722 5718 5713 5708 5705 5701 5697 5694 5690 5687 5683 5678 5676 5675 5675
5715 5718 5732 5737 5735 5732 5733 5730 5734 5741 5743 5741 5743 5747 5759 5761 5756 5757 5756 5755 5753 5750 5748 5743 5740 5738 5734 5729 5726 5723 5718 5713 5708 5703 5700 5696 5692 5690 5686 5682 5678 5676 5674 5673
5718 5727 5734 5730 5727 5725 5729 5730 5733 5732 5736 5739 5736 5743 5753 5759 5758 5757 5757 5759 5759 5753 5749 5744 5741 5738 5734 5729 5726 5722 5718 5712 5707 5703 5699 5695 5692 5689 5686 5682 5678 5675 5673 5671
5721 5727 5728 5726 5728 5729 5725 5735 5732 5730 5728 5732 5731 5726 5748 5754 5750 5752 5754 5755 5756 5755 5752 5748 5743 5738 5734 5731 5728 5723 5718 5713 5708 5703 5699 5695 5689 5686 5684 5681 5679 5676 5673 5671
5718 5724 5725 5725 5731 5732 5729 5730 5731 5730 5729 5728 5732 5725 5743 5749 5747 5753 5757 5756 5756 5755 5752 5748 5745 5741 5737 5732 5727 5722 5717 5712 5707 5702 5697 5693 5691 5687 5685 5682 5679 5677 5675 5672
5722 5729 5732 5731 5732 5733 5727 5727 5727 5728 5728 5716 5728 5722 5731 5750 5750 5755 5758 5758 5757 5756 5753 5749 5746 5741 5736 5731 5726 5721 5715 5711 5706 5701 5698 5694 5690 5687 5684 5682 5679 5678 5676 5674
5714 5722 5729 5732 5724 5724 5726 5720 5711 5711 5712 5718 5726 5720 5733 5753 5754 5753 5755 5758 5758 5756 5752 5748 5743 5738 5735 5730 5725 5721 5716 5711 5707 5703 5700 5696 5692 5689 5686 5683 5681 5678 5678 5675
5709 5711 5725 5730 5730 5726 5726 5725 5709 5699 5705 5718 5723 5722 5744 5755 5755 5755 5756 5757 5757 5754 5752 5748 5745 5741 5736 5731 5726 5722 5717 5713 5709 5704 5701 5698 5694 5691 5688 5684 5682 5680 5678 5676
5717 5715 5727 5731 5734 5733 5723 5724 5730 5719 5715 5708 5724 5734 5748 5755 5752 5752 5752 5752 5753 5752 5750 5748 5746 5742 5738 5733 5728 5723 5719 5714 5711 5706 5702 5699 5696 5692 5689 5686 5683 5682 5680 5677
5730 5718 5723 5726 5728 5724 5729 5729 5719 5712 5700 5699 5713 5721 5731 5744 5747 5750 5750 5750 5752 5752 5750 5749 5746 5742 5739 5735 5730 5726 5721 5717 5713 5708 5704 5700 5697 5694 5689 5688 5684 5683 5681 5678
5733 5724 5719 5722 5721 5723 5717 5716 5719 5717 5711 5698 5698 5719 5744 5743 5746 5748 5751 5753 5752 5751 5750 5748 5746 5744 5740 5736 5731 5727 5723 5718 5714 5710 5706 5701 5698 5695 5692 5689 5686 5683 5682 5680
5730 5728 5722 5724 5729 5729 5726 5724 5720 5708 5708 5707 5702 5718 5751 5746 5747 5747 5750 5752 5753 5752 5750 5748 5746 5744 5740 5736 5733 5729 5725 5720 5716 5712 5708 5704 5700 5696 5694 5691 5688 5686 5684 5682
5726 5722 5713 5712 5714 5718 5717 5718 5718 5718 5713 5708 5700 5718 5749 5747 5746 5748 5749 5751 5752 5751 5749 5748 5745 5743 5741 5738 5735 5731 5727 5723 5718 5713 5709 5706 5702 5699 5696 5693 5689 5687 5684 5682
5725 5722 5714 5705 5713 5719 5714 5711 5710 5710 5706 5708 5713 5723 5741 5745 5747 5750 5751 5752 5753 5752 5750 5748 5745 5744 5742 5740 5737 5734 5729 5725 5720 5715 5710 5707 5704 5701 5697 5695 5691 5688 5685 5682
5722 5717 5721 5721 5721 5716 5714 5714 5709 5708 5715 5712 5721 5727 5739 5747 5750 5753 5754 5754 5752 5752 5750 5749 5747 5746 5744 5741 5738 5737 5732 5726 5721 5716 5712 5709 5707 5703 5698 5695 5691 5688 5686 5683
5717 5712 5714 5711 5717 5712 5709 5715 5716 5713 5715 5717 5720 5727 5747 5753 5756 5754 5754 5754 5752 5753 5753 5752 5750 5749 5746 5743 5739 5737 5733 5728 5723 5718 5714 5711 5707 5704 5699 5696 5693 5689 5686 5684
5711 5708 5702 5703 5713 5704 5703 5720 5719 5718 5721 5719 5718 5733 5747 5746 5748 5751 5755 5755 5756 5758 5757 5754 5753 5752 5751 5748 5744 5740 5736 5731 5725 5721 5717 5713 5708 5704 5701 5698 5693 5689 5687 5685
5706 5703 5700 5698 5699 5684 5717 5733 5724 5718 5722 5726 5727 5734 5738 5742 5748 5755 5758 5757 5758 5760 5759 5757 5756 5754 5753 5751 5747 5743 5737 5732 5726 5722 5718 5714 5709 5705 5701 5697 5694 5691 5689 5686
5704 5698 5693 5692 5688 5696 5716 5724 5719 5713 5717 5724 5723 5728 5734 5742 5746 5755 5761 5761 5761 5763 5762 5761 5759 5757 5755 5752 5748 5742 5736 5732 5727 5723 5719 5715 5710 5705 5702 5698 5695 5693 5690 5687
5692 5693 5689 5686 5678 5681 5707 5721 5722 5713 5707 5716 5718 5721 5727 5731 5730 5746 5758 5758 5759 5760 5761 5760 5758 5756 5753 5750 5746 5740 5736 5731 5726 5723 5718 5715 5711 5706 5701 5698 5696 5693 5689 5686
5683 5680 5678 5680 5678 5692 5708 5710 5709 5693 5695 5707 5711 5714 5719 5721 5727 5740 5747 5751 5754 5755 5755 5754 5753 5750 5748 5746 5741 5737 5734 5730 5726 5721 5716 5711 5708 5704 5700 5696 5693 5690 5687 5684
5679 5677 5677 5677 5671 5680 5694 5696 5691 5690 5698 5701 5703 5707 5711 5717 5726 5733 5739 5743 5746 5747 5747 5747 5745 5744 5742 5740 5737 5735 5732 5728 5722 5716 5711 5707 5704 5701 5697 5692 5689 5687 5684 5681
5670 5672 5671 5672 5677 5681 5683 5682 5683 5685 5687 5692 5695 5700 5704 5710 5717 5724 5730 5734 5738 5740 5741 5741 5740 5738 5736 5735 5734 5731 5727 5721 5716 5710 5705 5702 5699 5695 5692 5689 5685 5682 5679 5678
5663 5660 5657 5660 5671 5674 5672 5672 5673 5673 5676 5681 5686 5690 5696 5700 5707 5713 5720 5725 5729 5732 5734 5734 5733 5731 5730 5729 5727 5726 5721 5716 5711 5706 5702 5697 5694 5690 5686 5682 5680 5677 5674 5672
5643 5643 5643 5646 5656 5660 5661 5659 5658 5660 5665 5669 5675 5679 5684 5690 5697 5703 5710 5715 5720 5723 5726 5726 5727 5728 5727 5723 5720 5718 5714 5710 5706 5701 5696 5692 5688 5685 5680 5675 5670 5668 5663 5661
5633 5630 5628 5632 5640 5636 5642 5645 5644 5645 5649 5654 5659 5667 5673 5679 5686 5693 5700 5706 5710 5715 5718 5719 5721 5721 5720 5717 5714 5711 5708 5704 5700 5695 5691 5686 5681 5677 5673 5667 5659 5650 5650 5645